Rockford, IL

4:44 AM CST on December 27, 2014 (GMT -0600)
Greater Rockford | Change Station
CLOSE
Current Station
Airport
Location: Rockford,
Elevation: 741 ft
Nearby Weather Stations

Elev 741 ft 42.19 °N, 89.09 °W | Updated 38 minutes ago

Overcast
Overcast
45 °F
Feels Like 39 °F
N
12
Wind Variable Wind from South

Today
High -- | Low -- °F
--% Chance of Precip.
Yesterday
High -- | Low -- °F
Precip. -- in
7:24 AM 4:31 PM
Waxing Crescent, 35% visible
Pressure 29.94 in
Visibility 10.0 miles
Clouds Mostly Cloudy 1200 ft
Overcast 2200 ft
Windchill 39 °F
Dew Point 42 °F
Humidity 90%
Rainfall 0.00 in
Snow Depth Not available.
UV 0 out of 12
Pollen .10 out of 12
Air Quality Not available.
Flu Activity Not available.
SPECI KRFD 271006Z 19010KT 10SM BKN012 OVC022 07/06 A2994 RMK AO2 T00720056

More Conditions Fewer Conditions

Pressure 29.94 in
Visibility 10.0 miles
Clouds Mostly Cloudy 1200 ft
Overcast 2200 ft
Windchill 39 °F
Dew Point 42 °F
Humidity 90%
Rainfall 0.00 in
Snow Depth Not available.
UV 0 out of 12
Pollen .10 out of 12
Air Quality Not available.
Flu Activity Not available.
SPECI KRFD 271006Z 19010KT 10SM BKN012 OVC022 07/06 A2994 RMK AO2 T00720056

More Conditions Fewer Conditions

10-Day Weather Forecast

Almanac

Astronomy

Dec. 27, 2014 Rise Set
Actual Time
Civil Twilight
Nautical Twilight
Astronomical Twilight
Moon
Length of Visible Light
Length of Day
Tomorrow will be .
, % of the Moon is Illuminated

Today's Extremes

State Highs State Lows

Community

WunderPhotos

Upload Photos

1,780,876 photos uploaded!

WunderBlogs® & News

Nearby

Air Quality

  Air Quality AQ Index Pollutant
Not available.

Snow Depth

Station Depth Elevation

Earthquake Activity

City Distance Mag. Time & Date
Minimum magnitude displayed is 2.5.

Coastal Water Temperatures

Place Temperature

Nearby Weather Stations